Location: Mohawk View
(42.7837°N, 73.7885°W)
Time: 07:25:59
(UTC+00:00)

ERBS - Pass Details

Date: 17 June 2021
Orbit: 397 x 417 km, 57.0° (Epoch: 27 July)

Event Time Altitude Azimuth Distance (km) Brightness Sun altitude
Exits shadow 07:55:24 13° 178° (S) 1,263 4.2 -12.0°
Maximum altitude 07:57:32 24° 127° (SE) 861 3.9 -11.8°
Drops below altitude 10° 08:00:14 10° 71° (ENE) 1,449 6.0 -11.4°
Sets 08:02:32 0° 57° (ENE) 2,315 7.8 -11.1°
